Waarnemingen

Advertentie
Mijn weer
Reus, Spanje (8175): temperatuur & dauwpunt: 13.11.2017 20:00:00 - 19.11.2017 20:00:00 (CET)Reus, Spanje (8175): windsnelheid: 13.11.2017 20:00:00 - 19.11.2017 20:00:00 (CET)Reus, Spanje (8175): windrichting: 13.11.2017 20:00:00 - 19.11.2017 20:00:00 (CET)Reus, Spanje (8175): luchtdruk: 13.11.2017 20:00:00 - 19.11.2017 20:00:00 (CET)Reus, Spanje (8175): zicht: 13.11.2017 20:00:00 - 19.11.2017 20:00:00 (CET)
Datum & Tijd tt [°C] td [°C] ff [km/u] ff [kn] dd ppp [hPa] vv [km]
19.11.2017 20:00:00 7,7 4,4 4 2 NNW 1021,9 30
19.11.2017 19:00:00 10,5 4,8 4 2 NNW 1021,4 30
19.11.2017 18:00:00 13,6 5,3 2 1 ONO 1020,8 30
19.11.2017 17:00:00 16,6 5,9 4 2 NO 1020,4 30
19.11.2017 16:00:00 18,5 5,3 4 2 NO 1020,0 30
19.11.2017 15:00:00 19,3 5,4 4 2 NO 1019,9 30
19.11.2017 14:00:00 19,2 5,3 4 2 OZO 1020,2 30
19.11.2017 13:00:00 18,1 4,9 4 2 ONO 1020,9 30
19.11.2017 12:00:00 16,6 5,4 4 2 NNO 1021,4 30
19.11.2017 11:00:00 14,7 5,5 2 1 OZO 1021,8 29
19.11.2017 10:00:00 11,9 6,0 4 2 OZO 1021,8 28
19.11.2017 09:00:00 7,1 4,8 4 2 NNO 1021,7 16
19.11.2017 08:00:00 3,9 2,6 5 3 NW 1021,5 15
19.11.2017 07:00:00 3,0 1,9 2 1 N 1020,8 9
19.11.2017 06:00:00 3,0 1,6 2 1 W 1020,9 10
19.11.2017 05:00:00 3,3 2,0 0 0 N 1020,9 12
19.11.2017 04:00:00 4,1 2,6 5 3 N 1020,8 10
19.11.2017 03:00:00 3,9 2,3 2 1 N 1021,0 23
19.11.2017 02:00:00 4,4 2,7 2 1 NNO 1020,9 13
19.11.2017 01:00:00 5,0 3,0 2 1 NNO 1021,3 13
19.11.2017 00:00:00 6,3 4,0 4 2 N 1021,7 20
18.11.2017 23:00:00 7,1 4,1 5 3 N 1021,7 14
18.11.2017 22:00:00 7,5 4,3 8 4 NNO 1021,7 15
18.11.2017 21:00:00 8,0 4,7 11 6 NO 1021,4 13
18.11.2017 20:00:00 9,3 4,7 8 4 NW 1021,2 11
18.11.2017 19:00:00 11,8 5,3 15 8 N 1020,7 15
18.11.2017 18:00:00 13,0 5,4 9 5 NO 1020,0 16
18.11.2017 17:00:00 17,1 5,6 8 4 WZW 1019,4 30
18.11.2017 16:00:00 19,4 5,4 9 5 ZW 1018,9 30
18.11.2017 15:00:00 20,2 4,8 4 2 ZZW 1018,9 30
18.11.2017 14:00:00 19,9 4,2 2 1 ZW 1019,4 18
18.11.2017 13:00:00 18,5 3,3 4 2 OZO 1020,0 20
18.11.2017 12:00:00 17,6 3,8 4 2 O 1020,4 30
18.11.2017 11:00:00 15,7 4,0 0 0 N 1020,4 22
18.11.2017 10:00:00 12,5 4,0 4 2 ONO 1020,4 20
18.11.2017 09:00:00 7,9 4,3 2 1 NO 1020,3 25
18.11.2017 08:00:00 4,4 1,2 4 2 NW 1019,8 30
18.11.2017 07:00:00 4,5 1,5 11 6 N 1019,5 20
18.11.2017 06:00:00 3,9 1,0 2 1 N 1019,4 25
18.11.2017 05:00:00 4,7 1,5 2 1 NNO 1019,4 26
18.11.2017 04:00:00 5,2 1,9 9 5 N 1019,4 21
18.11.2017 03:00:00 5,5 2,1 0 0 N 1019,2 22
18.11.2017 02:00:00 6,1 2,1 5 3 NNO 1019,4 21
18.11.2017 01:00:00 6,0 2,1 8 4 NNO 1019,9 30
18.11.2017 00:00:00 5,7 2,4 4 2 NNW 1019,8 27
17.11.2017 23:00:00 5,8 2,1 2 1 NNW 1019,7 15
17.11.2017 22:00:00 7,4 3,2 4 2 NNO 1019,4 17
17.11.2017 21:00:00 7,7 3,5 4 2 N 1019,3 14
17.11.2017 20:00:00 8,8 3,8 5 3 NNO 1019,1 16
17.11.2017 19:00:00 11,6 3,6 0 0 N 1018,7 12
17.11.2017 18:00:00 12,8 3,4 0 0 N 1018,1 30
17.11.2017 17:00:00 18,5 2,5 8 4 ZW 1017,7 30
17.11.2017 16:00:00 20,9 2,5 9 5 ZW 1018,0 30
17.11.2017 15:00:00 21,4 3,3 2 1 ZW 1018,1 28
17.11.2017 14:00:00 19,8 3,1 4 2 ONO 1018,8 22
17.11.2017 13:00:00 19,4 3,4 0 0 N 1019,5 13
17.11.2017 12:00:00 18,2 2,3 0 0 N 1020,4 26
17.11.2017 11:00:00 16,3 0,9 4 2 ZZO 1020,6 30
17.11.2017 10:00:00 13,6 3,5 0 0 N 1020,8 23
17.11.2017 09:00:00 8,2 2,8 8 4 NNO 1020,9 30
17.11.2017 08:00:00 3,3 0,9 4 2 N 1020,7 21
17.11.2017 07:00:00 3,7 1,0 5 3 NNO 1020,3 28
17.11.2017 06:00:00 3,7 1,0 5 3 NNO 1020,2 29
17.11.2017 05:00:00 4,3 0,9 8 4 NNO 1020,4 17
17.11.2017 04:00:00 5,1 1,2 11 6 NNO 1020,5 25
17.11.2017 03:00:00 5,3 2,0 5 3 NNO 1020,7 22
17.11.2017 02:00:00 4,7 1,9 9 5 NNO 1020,9 30
17.11.2017 01:00:00 4,6 1,4 4 2 N 1021,4 28
17.11.2017 00:00:00 5,1 1,9 4 2 NNO 1021,6 24
16.11.2017 23:00:00 6,7 2,6 11 6 N 1021,3 29
16.11.2017 22:00:00 6,9 3,2 11 6 N 1021,2 30
16.11.2017 21:00:00 7,0 4,2 5 3 N 1020,9 30
16.11.2017 20:00:00 8,7 5,0 9 5 NNW 1020,7 13
16.11.2017 19:00:00 9,6 5,5 11 6 NW 1020,2 20
16.11.2017 18:00:00 12,3 6,5 0 0 N 1019,9 30
16.11.2017 17:00:00 15,7 7,6 8 4 ZZW 1019,9 30
16.11.2017 16:00:00 17,4 5,8 9 5 Z 1019,8 30
16.11.2017 15:00:00 17,7 4,4 9 5 Z 1019,8 20
16.11.2017 14:00:00 17,8 4,9 8 4 Z 1020,3 30
16.11.2017 13:00:00 17,6 5,7 8 4 ZZW 1020,9 30
16.11.2017 12:00:00 17,2 4,7 4 2 Z 1021,6 30
16.11.2017 11:00:00 15,3 3,6 2 1 ONO 1021,8 30
16.11.2017 10:00:00 11,9 1,4 8 4 NNO 1021,3 30
16.11.2017 09:00:00 7,1 0,6 8 4 NNO 1020,9 30
16.11.2017 08:00:00 3,3 -0,2 5 3 NNO 1020,7 30
16.11.2017 07:00:00 3,8 0,2 8 4 NO 1019,9 30
16.11.2017 06:00:00 3,8 1,0 8 4 NNO 1019,7 30
16.11.2017 05:00:00 4,6 1,3 8 4 NNO 1019,7 30
16.11.2017 04:00:00 4,4 1,7 8 4 NNO 1019,7 30
16.11.2017 03:00:00 4,6 1,4 4 2 NNO 1020,1 30
16.11.2017 02:00:00 4,5 1,3 4 2 NNO 1020,0 30
16.11.2017 01:00:00 6,0 1,8 11 6 N 1020,1 30
16.11.2017 00:00:00 5,5 1,9 8 4 NNO 1020,2 30
15.11.2017 23:00:00 6,2 1,9 8 4 NNO 1020,3 30
15.11.2017 22:00:00 6,4 1,9 4 2 NNO 1020,2 15
15.11.2017 21:00:00 7,3 1,8 8 4 NNO 1019,7 13
15.11.2017 20:00:00 9,1 1,5 13 7 N 1019,2 27
15.11.2017 19:00:00 9,2 1,9 13 7 N 1018,8 22
15.11.2017 18:00:00 10,6 3,1 0 0 N 1018,2 30
15.11.2017 17:00:00 14,8 3,1 5 3 ZZW 1017,6 30
15.11.2017 16:00:00 16,7 2,1 8 4 Z 1017,6 30
15.11.2017 15:00:00 17,4 1,2 4 2 Z 1017,8 27
15.11.2017 14:00:00 15,9 0,0 0 0 N 1018,2 30
15.11.2017 13:00:00 15,4 0,5 0 0 N 1018,9 30
15.11.2017 12:00:00 14,7 0,8 0 0 N 1019,9 30
15.11.2017 11:00:00 12,6 0,0 2 1 NO 1020,4 25
15.11.2017 10:00:00 10,5 0,0 0 0 N 1020,6 30
15.11.2017 09:00:00 6,0 0,7 2 1 N 1020,8 22
15.11.2017 08:00:00 1,7 -1,6 8 4 NNW 1020,4 30
15.11.2017 07:00:00 1,5 -1,7 11 6 NW 1019,9 30
15.11.2017 06:00:00 1,4 -1,9 8 4 N 1019,7 30
15.11.2017 05:00:00 2,4 -1,9 4 2 ZZO 1019,6 30
15.11.2017 04:00:00 1,7 -2,0 5 3 NNW 1019,8 30
15.11.2017 03:00:00 1,3 -1,6 8 4 ONO 1020,2 30
15.11.2017 02:00:00 2,3 -1,3 4 2 NNO 1020,5 30
15.11.2017 01:00:00 2,5 -1,2 9 5 NO 1020,7 30
15.11.2017 00:00:00 2,7 -1,0 4 2 NNO 1021,0 30
14.11.2017 23:00:00 4,2 -0,9 4 2 N 1021,2 30
14.11.2017 22:00:00 5,2 -1,0 5 3 N 1021,3 30
14.11.2017 21:00:00 5,7 -0,6 5 3 NNO 1020,9 30
14.11.2017 20:00:00 6,1 -0,1 5 3 NO 1020,5 30
14.11.2017 19:00:00 8,7 -0,4 11 6 NNW 1019,8 30
14.11.2017 18:00:00 11,6 -1,1 4 2 W 1019,3 30
14.11.2017 17:00:00 14,2 -1,2 16 9 W 1018,5 30
14.11.2017 16:00:00 16,1 -0,9 11 6 ZW 1018,0 30
14.11.2017 15:00:00 16,3 -0,9 15 8 W 1017,6 30
14.11.2017 14:00:00 15,8 -0,8 18 10 W 1017,5 24
14.11.2017 13:00:00 15,3 -0,7 15 8 W 1018,1 30
14.11.2017 12:00:00 14,3 -1,2 18 10 W 1018,4 30
14.11.2017 11:00:00 12,5 -1,6 18 10 WNW 1018,4 30
14.11.2017 10:00:00 10,3 -1,8 28 15 WNW 1018,2 30
14.11.2017 09:00:00 8,6 -1,9 21 11 WNW 1018,3 30
14.11.2017 08:00:00 7,1 -2,4 24 13 WNW 1017,9 30
14.11.2017 07:00:00 6,8 -2,2 9 5 NW 1017,3 30
14.11.2017 06:00:00 7,1 -1,7 37 20 WNW 1016,2 30
14.11.2017 05:00:00 7,4 -2,3 31 17 W 1016,3 30
14.11.2017 04:00:00 7,6 -2,9 22 12 W 1016,1 30
14.11.2017 03:00:00 7,9 -3,6 26 14 W 1015,9 30
14.11.2017 02:00:00 6,6 -3,6 5 3 ZZW 1015,7 30
14.11.2017 01:00:00 8,1 -2,7 24 13 W 1016,2 30
14.11.2017 00:00:00 8,8 -3,7 22 12 WNW 1016,0 30
13.11.2017 23:00:00 8,6 -2,9 29 16 WZW 1016,3 30
13.11.2017 22:00:00 9,9 -3,9 21 11 W 1015,9 30
13.11.2017 21:00:00 10,2 -3,3 18 10 WNW 1015,9 30
13.11.2017 20:00:00 11,3 -3,9 34 18 WNW 1015,6 30

tt = temperatuur
td = dauwpunt
ff = windsnelheid
dd = windrichting
ppp = luchtdruk
vv = zicht

Weerstations in de omgeving